CW7386 Weather Reports


time (UTC)temp
C
wind
direction
speed
KPH
gust
KPH
rain 1hr
cm
rain 24hr
cm
rain mn
cm
humidity
%
barometer
mb
20260505153031 -17 0.0 0.0 0.00 0.00 0.00 1015.4
20260505151526 -17 0.0 0.0 0.00 0.00 0.00 1015.6
20260505124536 -17 0.0 0.0 0.00 0.00 0.00 1014.0
20260505123029 -17 0.0 0.0 0.00 0.00 0.00 1013.9
20260505121528 -17 0.0 0.0 0.00 0.00 0.00 1013.8
20260505120001 12 157 4.8 14.5 0.00 0.00 0.00 85 1013.8
20260505114506 12 213 8.0 16.1 0.00 0.00 0.00 85 1013.7
20260505113008 12 124 3.2 16.1 0.00 0.00 0.00 85 1013.6
20260505111503 12 240 6.4 12.9 0.00 0.00 0.00 85 1013.5
20260505101529 12 220 8.0 12.9 0.00 0.00 0.00 86 1013.2
20260505100003 12 230 6.4 14.5 0.00 0.00 0.00 85 1013.1
20260505094501 12 243 3.2 12.9 0.00 0.00 0.00 85 1013.1
20260505093021 12 251 4.8 11.3 0.00 0.00 0.00 84 1013.0
20260505091513 12 143 3.2 9.7 0.00 0.00 0.00 84 1012.8
20260505090003 12 264 3.2 8.0 0.00 0.00 0.00 84 1012.8
20260505084505 12 148 4.8 8.0 0.00 0.00 0.00 84 1012.7
20260505083008 12 213 1.6 9.7 0.00 0.00 0.00 83 1012.7
20260505081510 13 256 3.2 11.3 0.00 0.00 0.00 82 1012.6
20260505080015 13 169 3.2 11.3 0.00 0.00 0.00 82 1012.4
20260505074503 13 152 1.6 12.9 0.00 0.00 0.00 81 1012.3
20260505073005 13 237 6.4 12.9 0.00 0.00 0.00 80 1012.2
20260505071507 14 225 4.8 11.3 0.00 0.00 0.00 79 1012.0
20260505070012 15 202 3.2 11.3 0.00 0.00 0.00 77 1011.9
20260505064517 15 243 1.6 4.8 0.00 0.00 0.00 76 1011.7
20260505063003 15 230 1.6 8.0 0.00 0.00 0.00 1011.6
20260505061509 16 140 3.2 11.3 0.00 0.00 0.00 73 1011.5
20260505060010 16 302 3.2 11.3 0.00 0.00 0.00 70 1011.3
20260505054518 17 257 1.6 8.0 0.00 0.00 0.00 68 1011.2
20260505053003 18 173 3.2 8.0 0.00 0.00 0.00 67 1011.0
20260505051512 18 153 1.6 3.2 0.00 0.00 0.00 65 1010.9
20260505041503 20 221 0.0 0.0 0.00 0.00 0.00 53 1010.1
20260505040013 21 221 0.0 0.0 0.00 0.00 0.00 53 1009.9
20260505034516 21 299 0.0 0.0 0.00 0.00 0.00 50 1009.7
20260505033018 22 299 0.0 1.6 0.00 0.00 0.00 51 1009.4
20260505031524 22 338 0.0 3.2 0.00 0.00 0.00 48 1009.3
20260505030008 22 308 1.6 6.4 0.00 0.00 0.00 46 1009.2
20260505024512 23 334 1.6 6.4 0.00 0.00 0.00 46 1009.0
20260505023015 23 255 0.0 3.2 0.00 0.00 0.00 45 1009.0
20260505021521 24 329 4.8 14.5 0.00 0.00 0.00 43 1008.9
20260505020008 25 319 4.8 12.9 0.00 0.00 0.00 41 1009.0
20260505014512 25 282 3.2 16.1 0.00 0.00 0.00 40 1008.9
20260505013014 26 360 4.8 12.9 0.00 0.00 0.00 39 1008.9
20260505011519 27 205 1.6 8.0 0.00 0.00 0.00 36 1008.9
20260505010025 27 239 1.6 9.7 0.00 0.00 0.00 36 1008.9
20260505004508 27 331 1.6 11.3 0.00 0.00 0.00 35 1008.9
20260505003021 27 246 4.8 12.9 0.00 0.00 0.00 36 1009.0
20260505001518 27 226 6.4 12.9 0.00 0.00 0.00 36 1009.1
20260505000024 27 218 4.8 8.0 0.00 0.00 0.00 35 1009.1
20260504234528 27 201 3.2 9.7 0.00 0.00 0.00 35 1009.2
20260504233010 27 219 0.0 14.5 0.00 0.00 0.00 34 1009.2
20260504231518 26 214 3.2 11.3 0.00 0.00 0.00 35 1009.3
20260504230020 26 236 6.4 16.1 0.00 0.00 0.00 35 1009.3
20260504224526 26 221 1.6 19.3 0.00 0.00 0.00 36 1009.4
20260504223009 26 192 4.8 12.9 0.00 0.00 0.00 39 1009.6
20260504221514 27 267 1.6 14.5 0.00 0.00 0.00 35 1009.8
20260504220022 26 244 6.4 14.5 0.00 0.00 0.00 36 1010.1
20260504214526 26 142 4.8 14.5 0.00 0.00 0.00 36 1010.1
20260504213027 25 350 6.4 16.1 0.00 0.00 0.00 35 1010.1
20260504211513 26 267 4.8 14.5 0.00 0.00 0.00 33 1010.2
20260504210026 26 245 3.2 12.9 0.00 0.00 0.00 34 1010.3
20260504204524 26 207 6.4 12.9 0.00 0.00 0.00 32 1010.4
20260504203034 26 302 4.8 11.3 0.00 0.00 0.00 33 1010.4
20260504201514 26 219 4.8 14.5 0.00 0.00 0.00 35 1010.6
20260504200017 25 267 6.4 12.9 0.00 0.00 0.00 37 1010.6
20260504194521 26 227 6.4 11.3 0.00 0.00 0.00 37 1010.6
20260504193026 25 304 1.6 8.0 0.00 0.00 0.00 39 1010.4
20260504191527 25 223 4.8 11.3 0.00 0.00 0.00 37 1010.6
20260504190016 24 226 3.2 11.3 0.00 0.00 0.00 40 1010.6
20260504184521 25 248 3.2 9.7 0.00 0.00 0.00 42 1010.7
20260504183030 23 101 3.2 9.7 0.00 0.00 0.00 44 1010.8
20260504181510 23 168 3.2 9.7 0.00 0.00 0.00 46 1010.9
20260504180013 22 218 3.2 9.7 0.00 0.00 0.00 47 1010.9
20260504174520 21 226 6.4 9.7 0.00 0.00 0.00 47 1010.8
20260504173024 21 113 3.2 8.0 0.00 0.00 0.00 50 1010.9
20260504171527 21 213 4.8 6.4 0.00 0.00 0.00 52 1011.0